{"data":{"norad_id":45665,"epoch":"2026-09-20T06:00:02.000160Z","epoch_age_seconds":39724,"freshness":"FRESH","line1":"1 45665U 20035J   26263.25002315  .01055250  53369-3  24448-2 0  9994","line2":"2 45665  53.0309 168.1914 0001288 110.5500 326.2493 15.96660106  6026","mean_motion":15.96660106,"eccentricity":0.0001288,"inclination_deg":53.0309,"raan_deg":168.1914,"arg_perigee_deg":110.55,"mean_anomaly_deg":326.2493,"bstar":0.0024448,"rev_number":602,"period_min":90.188262021999,"perigee_km":282.83463808356,"apogee_km":284.55072540958,"semimajor_km":6661.8296817466,"source":"CELESTRAK","updated_at":"2026-09-20T09:00:38.450148Z"}}